#timestamp,LO_Frequency,Hit,StdDev 
1502316015.8,286047002.5,N,0.9
1502316035.6,286047000.1,N,0.9
1502316055.4,286047000.3,N,0.9
1502316075.3,286047002.8,N,1.0
1502316095.1,286046999.7,N,1.0
1502316115.8,286047002.5,N,1.0
1502316135.7,286047001.8,N,1.0
1502316155.5,286047003.7,Y,0.0
1502316175.4,286047002.3,P,0.4
1502316195.2,286047002.4,P,0.4
1502316215.0,286047000.2,N,0.9
1502316215.9,286047000.2,N,1.0
1502316235.8,286047002.3,N,1.0
1502316255.6,286046999.9,N,1.0
1502316275.5,286047001.0,N,1.0
1502316295.3,286047000.9,N,0.9
1502316315.1,286046999.8,N,1.0
1502316335.9,286046998.1,N,1.3
1502316355.7,286047000.8,N,1.2
1502316375.6,286047000.7,N,1.2
1502316395.4,286047001.1,N,1.1
1502316415.2,286047000.3,N,1.1
1502316435.1,286047002.4,N,1.1
1502316436.0,286047002.4,N,1.1
1502316455.8,286047000.3,N,1.1
1502316475.7,286047000.3,N,1.1
1502316495.5,286046999.9,N,1.1
1502316515.3,286046999.7,N,1.1
1502316535.2,286047000.0,N,1.1
1502316555.0,286046999.8,N,1.1
1502316555.9,286046999.8,N,1.1
1502316575.8,286046999.7,N,1.1
1502316595.6,286047002.5,N,1.1
1502316615.4,286047002.2,N,1.1
1502316635.3,286047004.3,Y,0.0
1502316655.1,286047001.9,P,0.6
1502316675.9,286047001.9,P,0.5
1502316695.7,286047001.6,N,0.5
1502316715.5,286047001.5,Y,0.0
1502316735.4,286046999.8,P,0.9
1502316755.2,286046999.8,N,0.8
1502316775.1,286047001.0,N,0.8
1502316776.0,286047011.9,Y,0.0
1502316795.8,286047000.2,P,0.2
1502316815.6,286046998.9,P,0.7
1502316835.5,286046998.9,N,0.7
1502316855.3,286046998.7,N,0.8
1502316875.2,286047000.7,N,0.8
1502316895.9,286046998.5,N,0.9
1502316915.7,286046998.1,N,0.9
1502316935.6,286046998.6,N,0.9
1502316955.4,286046999.2,N,0.9
1502316975.2,286046999.1,N,0.8
1502316995.1,286047000.8,N,0.9
1502316996.0,286047000.8,N,1.0
1502317015.8,286046999.2,N,0.9
1502317035.7,286046999.0,N,0.9
1502317055.5,286047000.7,N,0.9
1502317075.3,286046998.7,N,0.9
1502317095.2,286046998.8,N,0.9
1502317115.0,286046998.2,N,0.9
1502317115.9,286046998.2,N,0.9
1502317135.8,286046998.4,N,0.9
1502317155.6,286047001.1,N,1.0
1502317175.4,286046998.5,N,1.0
1502317195.3,286047000.4,N,1.0
1502317215.1,286046998.8,N,1.0
1502317235.9,286046998.3,N,1.0
1502317255.7,286047000.4,N,1.0
1502317275.5,286047001.2,N,1.0
1502317295.4,286046998.5,N,1.0
1502317315.2,286046996.9,Y,0.0
1502317335.1,286046998.8,P,0.3
1502317336.0,286046998.8,P,0.3
1502317355.8,286046998.8,P,0.2
1502317375.6,286047001.2,Y,0.0
1502317395.5,286047002.8,P,1.9
1502317415.3,286047002.6,N,1.8
1502317435.2,286047002.3,N,1.6
1502317455.9,286047002.0,N,1.4
1502317475.7,286047001.3,N,1.3
1502317495.6,286047000.2,N,1.3
1502317515.4,286047002.2,N,1.3
1502317535.3,286047001.6,N,1.2
1502317555.1,286047004.4,Y,0.0
1502317556.0,286047004.4,P,1.4
1502317575.8,286047002.6,N,1.2
1502317595.7,286047001.1,N,1.3
1502317615.5,286047000.5,N,1.4
1502317635.4,286047001.0,N,1.3
1502317655.2,286047002.8,N,1.3
1502317675.0,286047002.6,N,1.2
1502317675.9,286047002.6,N,1.1
1502317695.8,286047000.3,N,1.2
1502317715.6,286047000.3,N,1.2
1502317735.4,286047002.8,N,1.2
1502317755.3,286047002.7,N,1.2
1502317775.1,286047004.3,Y,0.0
1502317795.9,286047000.0,P,1.0
1502317815.7,286047000.0,N,0.9
1502317835.5,286046998.1,N,1.4
1502317855.4,286046998.7,N,1.3
1502317875.2,286046998.8,N,1.3
1502317895.1,286046998.1,N,1.3
1502317896.0,286046998.1,N,1.3
1502317915.8,286047001.1,N,1.3
1502317935.6,286046998.9,N,1.3
1502317955.5,286046999.3,N,1.2
1502317975.3,286046998.8,N,1.2
1502317995.2,286046998.8,N,1.1
1502318015.9,286047000.6,N,1.1
1502318035.7,286047001.0,N,1.2
1502318055.6,286046998.3,N,1.2
1502318075.4,286047000.9,N,1.2
1502318095.3,286046998.3,N,1.2
1502318115.1,286046998.5,N,1.2
1502318116.0,286046998.5,N,1.2
1502318135.8,286046998.2,N,1.2
1502318155.7,286046999.3,N,1.1
1502318175.5,286047001.2,N,1.2
1502318195.4,286046998.6,N,1.2
1502318215.2,286047000.8,N,1.2
1502318235.0,286046998.6,N,1.2
1502318235.9,286046998.6,N,1.2
1502318255.8,286046998.1,N,1.2
1502318275.6,286047001.2,N,1.2
1502318295.4,286046998.7,N,1.2
1502318315.3,286046998.9,N,1.1
1502318335.1,286047001.0,N,1.1
1502318355.9,286047001.2,N,1.2
1502318375.7,286046998.4,N,1.1
1502318395.5,286047000.1,N,1.1
1502318415.4,286047001.1,N,1.2
1502318435.2,286047000.8,N,1.2
1502318455.1,286046998.1,N,1.2
1502318456.0,286046998.1,N,1.2
1502318475.8,286047001.0,N,1.2
1502318495.6,286046999.8,N,1.2
1502318515.5,286047000.1,N,1.2
1502318535.3,286047001.0,N,1.2
1502318555.2,286047000.9,N,1.2
1502318575.9,286046998.6,N,1.2
1502318595.7,286047000.2,N,1.2
1502318615.6,286047000.2,N,1.2
1502318635.4,286047002.4,N,1.2
1502318655.3,286047002.7,N,1.3
1502318675.1,286047002.6,N,1.4
1502318695.8,286047000.0,N,1.4
1502318715.7,286047000.4,N,1.3
1502318735.5,286047000.4,N,1.3
1502318755.4,286047002.0,N,1.3
1502318775.2,286682707.7,Y,0.0
1502318795.0,286046999.9,P,0.2
1502318795.9,286046999.9,N,0.1
1502318815.8,286047000.2,N,0.2
1502318835.6,286047011.9,Y,0.0
1502318855.5,286047002.5,P,1.2
1502318875.3,286047001.9,N,1.0
1502318895.2,286047001.7,N,0.9
1502318915.9,286047002.1,N,0.8
1502318935.7,286047002.8,Y,0.0
1502318955.6,286047001.2,P,0.2
1502318975.4,286047001.2,P,0.2
1502318995.3,286047000.6,N,0.4
1502319015.1,286047001.0,N,0.3
1502319016.0,286047001.0,N,0.3
1502319035.8,286047000.6,N,0.3
1502319055.7,286047000.2,N,0.4
1502319075.5,286047000.3,N,0.4
1502319095.4,286047000.3,N,0.5
1502319115.2,286047001.0,N,0.4
1502319135.0,286047000.7,N,0.4
1502319135.9,286047000.7,N,0.4
1502319155.8,286046998.5,Y,0.0
1502319175.6,286046998.6,P,1.1
1502319195.5,286046998.5,N,1.1
1502319215.3,286046998.3,N,1.0
1502319235.1,286046998.7,N,0.9
1502319255.9,286046998.7,N,0.8
1502319275.7,286046998.8,N,0.8
1502319295.5,286046999.0,N,0.7
1502319315.4,286046999.4,N,0.7
1502319335.2,286046999.1,N,0.7
1502319355.1,286046998.5,N,0.7
1502319356.0,286046998.5,N,0.6
1502319375.8,286046999.0,N,0.6
1502319395.6,286046998.5,N,0.6
1502319415.5,286046998.4,N,0.6
1502319435.3,286046999.6,N,0.6
1502319455.2,286046999.3,N,0.6
1502319475.9,286046996.6,Y,0.0
1502319495.7,286046998.6,P,0.2
1502319515.6,286046999.1,P,0.2
1502319535.4,286046999.1,P,0.2
1502319555.3,286046998.8,Y,0.0
1502319575.1,286047001.1,P,1.1
1502319576.0,286047001.1,N,1.0
1502319595.8,286047000.8,N,0.9
